Location: Biharia
(46.4333°N, 22.8000°E)
Time: 00:26:11
(UTC+00:00)

Okean-O - Pass Details

Date: 16 October 2021
Orbit: 638 x 640 km, 98.2° (Epoch: 26 November)

Event Time Altitude Azimuth Distance (km) Brightness Sun altitude
Exits shadow 16:30:10 - 114° (ESE) 2,134 4.8 -9.3°
Reaches altitude 10° 16:30:30 10° 112° (ESE) 2,033 4.6 -9.4°
Maximum altitude 16:33:49 21° 63° (ENE) 1,436 3.9 -10.0°
Drops below altitude 10° 16:37:09 10° 14° (NNE) 2,043 5.1 -10.5°
Sets 16:39:46 0° 359° (N) 2,958 6.0 -11.0°
